Change the Weather History Date:

Wednesday, April 2, 2014

  Actual Average Record
Temperature  
Mean Temperature 55 °F 44 °F  
Max Temperature 63 °F 54 °F 84 °F (1963)
Min Temperature 46 °F 34 °F 23 °F (1964)
Degree Days  
Heating Degree Days 10 21  
Month to date heating degree days 26 43  
Since 1 July heating degree days 5717 5457  
Cooling Degree Days 0 0  
Month to date cooling degree days 0 0  
Year to date cooling degree days 0 1  
Growing Degree Days 4 (Base 50)    
Moisture  
Dew Point 38 °F    
Average Humidity 57    
Maximum Humidity 93    
Minimum Humidity 20    
Precipitation  
Precipitation 0.18 in 0.11 in 2.01 in (1977)
Month to date precipitation 0.18 0.22  
Year to date precipitation 5.59 7.50  
Sea Level Pressure  
Sea Level Pressure 30.07 in    
Wind  
Wind Speed 8 mph (West)    
Max Wind Speed 22 mph    
Max Gust Speed 35 mph    
Visibility 10 miles    
Events Rain    
T = Trace of Precipitation, MM = Missing Value Source: NWS Daily Summary

Daily Weather History Graph

Daily Weather History Graph

Search for Another Location

Airport or City:

Trip Planner

Search our weather history database for the weather conditions in past years. The results will help you decide how hot, cold, wet, or windy it might be!

Date:

Astronomy

Apr. 02, 2014 Rise Set
Actual Time 6:55 AM EDT 7:38 PM EDT
Civil Twilight 6:28 AM EDT 8:06 PM EDT
Nautical Twilight 5:55 AM EDT 8:38 PM EDT
Astronomical Twilight 5:22 AM EDT 9:12 PM EDT
Moon 8:38 AM EDT (4/2) 11:00 PM EDT (4/2)
Length of Visible Light 13h 38m
Length of Day
12h 43m
Waxing Crescent, 10% of the Moon is Illuminated
Apr 2
Waxing Crescent
Apr 7
First Quarter
Apr 15
Full
Apr 22
Last Quarter
Apr 29
New

Hourly Weather History & Observations

Time (EDT) Temp. Windchill Dew Point Humidity Pressure Visibility Wind Dir Wind Speed Gust Speed Precip Events Conditions
12:53 AM 63.0 °F - 23.0 °F 22% 29.96 in 10.0 mi West 20.7 mph 27.6 mph N/A   Clear
1:53 AM 62.1 °F - 21.0 °F 21% 29.98 in 10.0 mi West 17.3 mph 21.9 mph N/A   Clear
2:53 AM 60.1 °F - 23.0 °F 24% 29.98 in 10.0 mi NW 11.5 mph - N/A   Clear
3:53 AM 59.0 °F - 25.0 °F 27% 29.98 in 10.0 mi NW 19.6 mph 25.3 mph N/A   Clear
4:53 AM 54.0 °F - 32.0 °F 43% 29.99 in 10.0 mi SSE 6.9 mph - N/A   Clear
5:53 AM 53.1 °F - 33.1 °F 47% 30.02 in 10.0 mi WNW 6.9 mph - N/A   Mostly Cloudy
6:53 AM 46.9 °F - 41.0 °F 80% 30.10 in 5.0 mi West 6.9 mph - 0.04 in Rain Rain
8:53 AM 46.0 °F 41.9 °F 44.1 °F 93% 30.10 in 7.0 mi South 8.1 mph - 0.04 in Rain Light Rain
9:53 AM 48.0 °F - 45.0 °F 89% 30.12 in 10.0 mi SW 8.1 mph - 0.01 in   Overcast
10:53 AM 50.0 °F - 46.0 °F 86% 30.12 in 10.0 mi SW 9.2 mph - 0.00 in   Partly Cloudy
11:27 AM 51.1 °F - 45.0 °F 80% 30.11 in 10.0 mi West 6.9 mph - N/A   Overcast
11:53 AM 52.0 °F - 44.1 °F 74% 30.13 in 10.0 mi West 5.8 mph - N/A   Overcast
12:33 PM 55.0 °F - 45.0 °F 69% 30.11 in 10.0 mi NW 9.2 mph - N/A   Mostly Cloudy
12:53 PM 55.9 °F - 45.0 °F 67% 30.10 in 10.0 mi NW 11.5 mph - N/A   Partly Cloudy
1:53 PM 57.0 °F - 45.0 °F 64% 30.09 in 10.0 mi NW 12.7 mph - N/A   Scattered Clouds
2:53 PM 57.9 °F - 43.0 °F 58% 30.09 in 10.0 mi NW 10.4 mph - N/A   Clear
3:53 PM 60.1 °F - 41.0 °F 49% 30.07 in 10.0 mi NW 9.2 mph - N/A   Clear
4:53 PM 60.1 °F - 39.0 °F 46% 30.08 in 10.0 mi West 9.2 mph - N/A   Overcast
6:53 PM 57.0 °F - 39.9 °F 53% 30.09 in 10.0 mi WNW 8.1 mph - N/A   Clear
7:53 PM 54.0 °F - 39.9 °F 59% 30.10 in 10.0 mi SW 3.5 mph - N/A   Clear
8:53 PM 54.0 °F - 39.0 °F 57% 30.11 in 10.0 mi WNW 4.6 mph - N/A   Partly Cloudy
9:53 PM 53.1 °F - 39.9 °F 61% 30.12 in 10.0 mi West 3.5 mph - N/A   Scattered Clouds
10:53 PM 51.1 °F - 41.0 °F 68% 30.12 in 10.0 mi Calm Calm - N/A   Overcast
11:53 PM 51.1 °F - 41.0 °F 68% 30.12 in 10.0 mi ESE 3.5 mph - N/A   Overcast